Miscellaneous Local Product
Issued by NWS North Platte, NE

Home | Current Version | Previous Version | Graphics & Text | Print | Product List | Glossary On
Versions: 1 2 3 4 5 6 7 8 9 10 11 12 13 14 15 16 17 18 19 20 21 22 23 24 25 26 27 28 29 30 31 32 33 34 35 36 37 38 39 40 41 42 43 44 45 46 47 48 49 50
333
AXUS43 KLBF 270210
MISLBF


WESTERN AND NORTH CENTRAL NEBRASKA HOURLY WEATHER ROUNDUP
NATIONAL WEATHER SERVICE NORTH PLATTE NE
800 PM CST SUN FEB 26 2017

NOTE: "FAIR" INDICATES FEW OR NO CLOUDS BELOW 12,000 FEET WITH NO
SIGNIFICANT WEATHER AND/OR OBSTRUCTIONS TO VISIBILITY.

NOTE: STATIONS NOT REPORTING VARIABLES SUCH AS SKY/WEATHER OR
PRESSURE ARE PROVIDED BY RAWS AND APRS NETWORKS AND ARE NOT UNDER
NATIONAL WEATHER SERVICE QUALITY CONTROL.

...OBSERVATIONS IN AND NEAR THE EASTERN PANHANDLE OF NEBRASKA...

CITY           SKY/WX    TMP DP  RH WIND       PRES   REMARKS
PINE RIDGE     CLEAR     15   7  70 CALM      29.82S
CHADRON        CLEAR     15   7  70 CALM      29.83R
ALLIANCE       CLOUDY     9   3  77 SW9       29.82S WCI  -4
SIDNEY         CLEAR     22  12  65 NE5       29.83R WCI  16
CRESCENT LAKE    N/A     24  12  60 W3          N/A
$$

...OBSERVATIONS IN NORTHERN NEBRASKA AND FAR SOUTHERN SOUTH DAKOTA...

CITY           SKY/WX    TMP DP  RH WIND       PRES   REMARKS
WINNER         FAIR      29  18  63 SW15      29.84S WCI  18
VALENTINE      CLOUDY    17   9  70 SW8       29.86R WCI   7
THEDFORD       CLOUDY    20  13  75 SW3       29.89R
AINSWORTH      CLOUDY    22  15  74 SW8       29.87S WCI  12
O`NEILL        CLEAR     29  20  69 SW6       29.91R WCI  23
ORD            CLEAR     24  17  74 SW6       29.91S WCI  17
BROKEN BOW     CLEAR     25  17  72 CALM      29.90S
VALENTINE NWR    N/A     24  14  65 SW7         N/A  WCI  16
BUTTE            N/A     27  20  75 SW7         N/A  WCI  20
HALSEY           N/A     27  13  55 CALM        N/A
CHAMBERS         N/A     27  14  57 W3          N/A
EWING            N/A     27  19  70 CALM        N/A
$$

...OBSERVATIONS IN SOUTHWEST NEBRASKA AND FAR NORTHEAST COLORADO...

CITY           SKY/WX    TMP DP  RH WIND       PRES   REMARKS
HOLYOKE        FAIR      28  19  69 E9        29.86R WCI  20
IMPERIAL       CLEAR     24  15  68 E6        29.88R WCI  17
OGALLALA       CLOUDY    25  16  66 CALM      29.87S
NORTH PLATTE   CLEAR     22  13  68 CALM      29.90S
MCCOOK         CLEAR     27  10  49 NE6       29.92R WCI  20
LEXINGTON      CLEAR     29  16  56 SW3       29.93S
STAPLETON        N/A     26  13  59 CALM        N/A
GOTHENBURG       N/A     29  12  49 CALM        N/A
CALLAWAY         N/A     21  15  78 CALM        N/A
$$

...OBSERVATIONS IN CENTRAL LINCOLN COUNTY AREA...

CITY           SKY/WX    TMP DP  RH WIND       PRES   REMARKS
N.P. AIRPORT   CLEAR     22  13  68 CALM      29.90S
N.P. DOWNTOWN    N/A     18  11  74 W3          N/A
N.P. SOUTHEAST   N/A     29  14  52 CALM        N/A
N.P. HILLCREST   N/A     30  13  49 CALM        N/A
$$

...SOME OBSERVATIONS FROM AROUND THE REGION...

CITY           SKY/WX    TMP DP  RH WIND       PRES   REMARKS
LARAMIE        CLOUDY    18   3  52 SW10      29.71R WCI   6
CHEYENNE       CLOUDY    18   9  68 W8        29.75S WCI   8
DENVER         PTCLDY    30   0  27 E7        29.75R WCI  23
AKRON          CLEAR     31   8  38 SE7       29.79R WCI  24
SCOTTSBLUFF    CLEAR     16   7  67 SE7       29.82S WCI   6
RAPID CITY     CLOUDY    24  15  68 CALM      29.76R
BISMARCK       CLOUDY    20  14  77 NE5       29.85R WCI  13
PIERRE         CLEAR     28  15  58 W6        29.79S WCI  22
SIOUX FALLS    PTCLDY    31  24  75 SW8       29.89R WCI  23
OMAHA          CLEAR     34  24  67 CALM      29.98R
GRAND ISLAND   CLEAR     33  19  56 W3        29.95R
KANSAS CITY    CLEAR     41  33  73 S10       30.00R
WICHITA        PTCLDY    45  24  43 E3        29.98R
OKLAHOMA CITY  MOCLDY    50  34  54 N7        29.92R
DALLAS         CLOUDY    59  53  80 NE7       29.88R
AMARILLO       CLOUDY    47  13  25 S3        29.85S
DODGE CITY     CLEAR     33  13  43 E8        29.93R WCI  26
HAYS           CLEAR     33   8  35 NE9       29.96S WCI  25
GOODLAND       CLEAR     28   7  41 SE13      29.85S WCI  17
$$




USA.gov is the U.S. government's official web portal to all federal, state and local government web resources and services.